[[{"header":{"parameterUnit":"m.s-1","parameterCategory":1,"la1":30.2991,"la2":30.254,"lo1":-89.0895,"lo2":-89.0444,"dy":0.0017,"dx":0.0017,"nx":28,"ny":28,"refTime":"2024-08-23T03:00:00:Z","depth":0,"parameterNumber":2,"parameterNumberName":"U-component_of_WINDS"},"data":[0,0,0,0,0,0,0,0,0,0,0,0,0,0,0,0,0,0,0,0,0,0,0,0,0,0,0,0,0,0,0,0,0,0,0,0,0,0,0,0,0,0,0,0,0,0,0,0,0,0,0,0,0,0,0,0,0,0,-4.4431,-4.443,0,-4.4405,-4.4405,-4.4404,-4.4292,-4.4289,-4.4287,-4.4284,-4.426,-4.4261,-4.4263,0,0,0,0,0,0,0,0,0,0,0,0,0,-4.4385,-4.4386,-4.4431,-4.443,-4.443,-4.4405,-4.4405,-4.4404,-4.4292,-4.4289,-4.4286,-4.4283,-4.4259,-4.4261,-4.4263,0,0,0,0,0,0,0,0,0,0,0,0,0,-4.4387,-4.4387,-4.4431,-4.4371,-4.4365,-4.4405,-4.4405,-4.4404,-4.4293,-4.4289,-4.4285,-4.4282,-4.4258,-4.4261,-4.4264,-4.4359,0,0,-4.4272,-4.4273,0,0,0,0,0,0,0,0,-4.4387,-4.4388,-4.438,-4.4375,-4.4369,-4.4347,-4.4379,-4.4389,-4.4294,-4.4321,-4.4284,-4.428,-4.4292,-4.4292,-4.4296,-4.4358,-4.4357,-4.4272,-4.4274,-4.4275,-4.4276,0,0,0,0,0,0,0,-4.4387,-4.4389,-4.442,-4.438,-4.4373,-4.4346,-4.4342,-4.4381,-4.4329,-4.4318,-4.431,-4.4308,-4.4288,-4.4293,-4.4294,-4.4356,-4.4272,-4.4274,-4.4276,-4.4277,-4.4495,-4.4499,0,0,0,0,0,0,-4.4395,-4.439,-4.4421,-4.442,-4.4368,-4.435,-4.4346,-4.4358,-4.4328,-4.432,-4.4312,-4.4303,-4.4291,-4.4291,-4.4293,-4.4401,-4.4275,-4.4277,-4.4279,-4.449,-4.4496,-4.45,0,0,0,0,0,0,-4.4394,-4.4399,-4.4422,-4.4402,-4.4403,-4.4355,-4.4371,-4.436,-4.4365,-4.4323,-4.4314,-4.4326,-4.4288,-4.4289,-4.4343,-4.4398,-4.4278,-4.4281,-4.4486,-4.4492,-4.4498,-4.4619,0,0,0,0,0,0,-4.4393,-4.4399,-4.4434,-4.4404,-4.4405,-4.4472,-4.4374,-4.4362,-4.4369,-4.4358,-4.4334,-4.4326,-4.4285,-4.434,-4.4346,-4.44,-4.4283,-4.448,-4.4488,-4.4496,-4.461,-4.4628,-4.4645,0,0,0,0,0,-4.4392,-4.447,-4.4436,-4.4441,-4.4448,-4.4476,-4.4476,-4.4426,-4.4374,-4.4409,-4.4383,-4.4327,-4.4393,-4.4346,-4.4352,-4.4408,-4.4476,-4.4486,-4.4495,-4.4602,-4.4625,-4.4644,0,0,0,0,0,0,-4.4508,-4.4465,-4.4427,-4.4497,-4.4491,-4.4457,-4.4499,-4.4452,-4.4461,-4.445,-4.4388,-4.4383,-4.4446,-4.4433,-4.4382,-4.4498,-4.4425,-4.4436,-4.4504,-4.4526,-4.4543,-4.4543,-4.4285,0,0,0,0,0,-4.4542,-4.4568,-4.4529,-4.4595,-4.4593,-4.4548,-4.4558,-4.452,-4.4511,-4.4508,-4.4485,-4.4479,-4.4498,-4.4512,-4.4527,-4.4609,-4.4601,-4.465,-4.4668,-4.4682,-4.4692,-4.4733,-4.4753,-4.4531,-4.4531,-4.4531,0,0,-4.4612,-4.4591,-4.4611,-4.4617,-4.4608,-4.4636,-4.4546,-4.458,-4.46,-4.4513,-4.4561,-4.4545,-4.4535,-4.4603,-4.4631,-4.4593,-4.4752,-4.4694,-4.4706,-4.4707,-4.4744,-4.4766,-4.4784,-4.4537,-4.4536,-4.4535,0,0,-4.4752,-4.4741,-4.4793,-4.4786,-4.4773,-4.4742,-4.4755,-4.4728,-4.4713,-4.4761,-4.4696,-4.4721,-4.4755,-4.4749,-4.4751,-4.4893,-4.4841,-4.49,-4.499,-4.5031,-4.5048,-4.5063,-4.5112,-4.513,-4.491,-4.491,-4.491,0,-4.4841,-4.488,-4.4826,-4.4864,-4.4868,-4.4792,-4.4844,-4.484,-4.4833,-4.4838,-4.4797,-4.4837,-4.4825,-4.489,-4.4924,-4.493,-4.4942,-4.49,-4.505,-4.5065,-4.5078,-4.5123,-4.5142,-4.4917,-4.4916,-4.4916,-4.4915,0,-4.4988,-4.5017,-4.5061,-4.5056,-4.5065,-4.5111,-4.5065,-4.5081,-4.5044,-4.5018,-4.5068,-4.5051,-4.506,-4.5074,-4.5038,-4.5134,-4.5111,-4.5061,-4.4985,-4.5107,-4.5149,-4.5166,-4.4927,-4.4925,-4.4923,-4.4921,0,0,-4.5198,-4.5163,-4.518,-4.5176,-4.5157,-4.5178,-4.5222,-4.5231,-4.5245,-4.5245,-4.5278,-4.531,-4.5263,-4.5265,-4.5228,-4.5265,-4.5376,-4.521,-4.5209,-4.5239,-4.5479,-4.5514,-4.5535,-4.5343,-4.5346,-4.5349,-4.5479,0,-4.5331,-4.5399,-4.5353,-4.543,-4.5455,-4.5384,-4.5421,-4.5414,-4.5391,-4.541,-4.5386,-4.5408,-4.5346,-4.5347,-4.538,-4.5355,-4.5422,-4.5346,-4.5372,-4.5374,-4.5374,-4.5557,-4.5595,-4.5718,-4.5495,-4.5498,-4.55,0,-4.5493,-4.5498,-4.5577,-4.5553,-4.5562,-4.5596,-4.56,-4.562,-4.5611,-4.5592,-4.5595,-4.5549,-4.559,-4.5518,-4.5573,-4.5522,-4.5531,-4.5521,-4.5524,-4.5522,-4.5442,-4.5558,-4.5757,-4.5774,-4.5525,-4.5523,-4.5521,0,-4.5635,-4.5662,-4.5713,-4.5712,-4.5686,-4.5711,-4.5701,-4.5688,-4.5697,-4.5702,-4.5707,-4.5717,-4.5722,-4.5732,-4.569,-4.5642,-4.575,-4.5675,-4.5735,-4.5736,-4.5757,-4.5756,-4.5958,-4.5769,-4.5769,-4.5769,-4.5768,0,-4.5786,-4.5836,-4.5776,-4.5807,-4.5862,-4.5809,-4.5865,-4.5848,-4.5838,-4.5864,-4.5805,-4.5831,-4.5775,-4.5797,-4.5765,-4.5814,-4.5818,-4.5803,-4.5793,-4.5807,-4.5808,-4.5809,-4.5798,-4.5773,-4.5772,-4.5771,-4.5771,0,-4.5952,-4.5914,-4.5964,-4.5935,-4.5929,-4.597,-4.5946,-4.5973,-4.5948,-4.5982,-4.5988,-4.5948,-4.5969,-4.593,-4.5947,-4.5925,-4.5994,-4.5972,-4.5996,-4.5989,-4.6049,-4.6043,-4.6256,-4.6281,-4.6079,-4.6081,-4.6083,0,-4.6049,-4.6086,-4.6061,-4.6074,-4.6068,-4.609,-4.6098,-4.6049,-4.6061,-4.6054,-4.6082,-4.6099,-4.6109,-4.6148,-4.612,-4.6133,-4.611,-4.6184,-4.6111,-4.6123,-4.6108,-4.6105,-4.6107,-4.6198,-4.62,-4.6202,-4.6204,0,-4.6224,-4.6203,-4.6217,-4.6225,-4.6237,-4.6241,-4.6241,-4.6256,-4.6204,-4.622,-4.6241,-4.6249,-4.6266,-4.6283,-4.629,-4.628,-4.6233,-4.6227,-4.6241,-4.6253,-4.6264,-4.6257,-4.6034,-4.6222,-4.622,-4.6219,-4.6218,-4.6217,-4.6356,-4.6386,-4.6373,-4.639,-4.6385,-4.6387,-4.6411,-4.6389,-4.6405,-4.6414,-4.6385,-4.6413,-4.6404,-4.6408,-4.6404,-4.6425,-4.6392,-4.6413,-4.6417,-4.6423,-4.6431,-4.6264,-4.6426,-4.6426,-4.6425,-4.6425,-4.6424,0,-4.6526,-4.6514,-4.6532,-4.6533,-4.6547,-4.6503,-4.6501,-4.6515,-4.654,-4.6535,-4.6547,-4.6571,-4.6588,-4.6563,-4.6576,-4.6598,-4.6577,-4.6602,-4.6599,-4.6597,-4.6461,-4.6446,-4.6619,-4.6619,-4.6619,-4.6619,-4.6619,-4.6619,-4.6616,-4.6662,-4.6641,-4.6685,-4.6673,-4.6699,-4.6701,-4.6703,-4.6698,-4.6728,-4.6741,-4.6725,-4.6712,-4.6723,-4.6737,-4.6729,-4.6735,-4.6769,-4.6753,-4.6626,-4.6607,-4.6588,-4.6574,-4.6771,-4.6771,-4.6887,-4.6888,-4.6889]},{"header":{"parameterUnit":"m.s-1","parameterCategory":1,"la1":30.2991,"la2":30.254,"lo1":-89.0895,"lo2":-89.0444,"dy":0.0017,"dx":0.0017,"nx":28,"ny":28,"refTime":"2024-08-23T03:00:00:Z","depth":0,"parameterNumber":3,"parameterNumberName":"V-component_of_WINDS"},"data":[0,0,0,0,0,0,0,0,0,0,0,0,0,0,0,0,0,0,0,0,0,0,0,0,0,0,0,0,0,0,0,0,0,0,0,0,0,0,0,0,0,0,0,0,0,0,0,0,0,0,0,0,0,0,0,0,0,0,1.3207,1.3207,0,1.3214,1.3214,1.3214,1.3242,1.3242,1.3243,1.3244,1.3246,1.3245,1.3245,0,0,0,0,0,0,0,0,0,0,0,0,0,1.3215,1.3214,1.3207,1.3207,1.3207,1.3214,1.3214,1.3214,1.3242,1.3242,1.3243,1.3244,1.3246,1.3245,1.3245,0,0,0,0,0,0,0,0,0,0,0,0,0,1.3215,1.3214,1.3207,1.3222,1.3223,1.3214,1.3214,1.3214,1.3241,1.3242,1.3243,1.3244,1.3246,1.3245,1.3244,1.322,0,0,1.3242,1.3242,0,0,0,0,0,0,0,0,1.3215,1.3215,1.322,1.3221,1.3223,1.3228,1.3218,1.3216,1.3241,1.3234,1.3244,1.3245,1.3239,1.3239,1.3238,1.322,1.322,1.3242,1.3241,1.3241,1.3241,0,0,0,0,0,0,0,1.3215,1.3215,1.321,1.322,1.3222,1.3227,1.3228,1.3217,1.3231,1.3235,1.3237,1.3238,1.324,1.3238,1.3238,1.322,1.3242,1.3241,1.3241,1.324,1.3184,1.3183,0,0,0,0,0,0,1.3214,1.3215,1.321,1.321,1.3221,1.3226,1.3228,1.3225,1.3231,1.3233,1.3237,1.3239,1.3239,1.3239,1.3238,1.3211,1.3241,1.324,1.324,1.3185,1.3184,1.3183,0,0,0,0,0,0,1.3214,1.3213,1.3209,1.3213,1.3213,1.3225,1.3222,1.3225,1.3224,1.3233,1.3235,1.3233,1.324,1.3239,1.3225,1.3211,1.324,1.3239,1.3186,1.3185,1.3184,1.3155,0,0,0,0,0,0,1.3214,1.3213,1.3204,1.3213,1.3213,1.3197,1.3222,1.3224,1.3223,1.3226,1.323,1.3231,1.3241,1.3226,1.3224,1.321,1.3238,1.3188,1.3186,1.3184,1.3157,1.3153,1.3149,0,0,0,0,0,1.3214,1.3194,1.3204,1.3203,1.3202,1.3196,1.3196,1.3209,1.3222,1.3213,1.3219,1.3231,1.3213,1.3224,1.3222,1.3208,1.3189,1.3186,1.3184,1.3159,1.3154,1.3149,0,0,0,0,0,0,1.3181,1.3196,1.3206,1.3189,1.3191,1.3201,1.319,1.3202,1.32,1.3202,1.3216,1.3217,1.3201,1.3203,1.3215,1.3186,1.3203,1.32,1.3185,1.3179,1.3175,1.3175,1.3238,0,0,0,0,0,1.3173,1.3168,1.318,1.3164,1.3165,1.3177,1.3175,1.3185,1.3187,1.3188,1.3193,1.3193,1.3188,1.3184,1.3179,1.3158,1.3159,1.3147,1.3143,1.314,1.3137,1.3127,1.3122,1.3176,1.3176,1.3176,0,0,1.3154,1.3161,1.3156,1.3157,1.316,1.3154,1.3178,1.3169,1.3165,1.3186,1.3173,1.3177,1.3179,1.3162,1.3154,1.3163,1.3123,1.3137,1.3134,1.3133,1.3124,1.3119,1.3114,1.3174,1.3174,1.3175,0,0,1.3116,1.3121,1.3109,1.3112,1.3118,1.3127,1.3124,1.3132,1.3136,1.3124,1.314,1.3134,1.3125,1.3126,1.3125,1.309,1.3102,1.3088,1.3066,1.3056,1.3052,1.3048,1.3036,1.3032,1.3086,1.3086,1.3086,0,1.3091,1.3084,1.31,1.3092,1.3092,1.3114,1.3101,1.3103,1.3106,1.3105,1.3115,1.3105,1.3107,1.3091,1.3083,1.3082,1.3078,1.3087,1.3052,1.3048,1.3045,1.3033,1.3029,1.3084,1.3084,1.3084,1.3085,0,1.3054,1.3048,1.3038,1.3042,1.3041,1.3031,1.3045,1.3041,1.3052,1.3059,1.3048,1.3052,1.3049,1.3046,1.3055,1.3031,1.3037,1.3049,1.3067,1.3038,1.3027,1.3023,1.3082,1.3082,1.3083,1.3083,0,0,1.2994,1.301,1.3006,1.3009,1.3018,1.3013,1.3004,1.3004,1.3001,1.3002,1.2994,1.2987,1.2999,1.2998,1.3008,1.2999,1.2972,1.3013,1.3013,1.3005,1.2947,1.2938,1.2933,1.2981,1.298,1.2979,1.2947,0,1.2959,1.2945,1.2961,1.2943,1.2939,1.296,1.2952,1.2956,1.2963,1.296,1.2967,1.2962,1.2978,1.2978,1.2971,1.2977,1.2961,1.298,1.2973,1.2972,1.2972,1.2927,1.2917,1.2886,1.2943,1.2942,1.2942,0,1.2915,1.2918,1.29,1.2912,1.2911,1.2903,1.2905,1.2902,1.2907,1.2913,1.2913,1.2926,1.2917,1.2935,1.2923,1.2935,1.2934,1.2937,1.2936,1.2935,1.2955,1.2925,1.2877,1.2872,1.2936,1.2936,1.2937,0,1.2874,1.2873,1.2863,1.2865,1.2878,1.2872,1.2877,1.2883,1.2883,1.2884,1.2883,1.2883,1.2882,1.2881,1.2893,1.2905,1.2879,1.2898,1.2883,1.2883,1.2876,1.2876,1.2827,1.2875,1.2876,1.2876,1.2876,0,1.2833,1.2821,1.2845,1.2839,1.2827,1.2845,1.2832,1.2839,1.2845,1.284,1.2857,1.2852,1.2869,1.2865,1.2874,1.2863,1.2862,1.2866,1.2869,1.2865,1.2864,1.2863,1.2865,1.2874,1.2875,1.2875,1.2875,0,1.2784,1.28,1.279,1.2805,1.2808,1.2798,1.281,1.2804,1.2814,1.2807,1.2807,1.2821,1.2818,1.283,1.2828,1.2834,1.2818,1.2824,1.2817,1.2819,1.2803,1.2805,1.2751,1.2745,1.2797,1.2797,1.2796,0,1.2757,1.2749,1.2763,1.2763,1.2767,1.2765,1.2765,1.2783,1.2782,1.2788,1.2782,1.2781,1.278,1.2774,1.2783,1.2782,1.2788,1.277,1.2788,1.2785,1.2788,1.2789,1.2788,1.2765,1.2765,1.2764,1.2764,0,1.2707,1.2715,1.2716,1.272,1.272,1.2723,1.2727,1.2725,1.2744,1.2742,1.274,1.274,1.274,1.2738,1.274,1.2743,1.2756,1.2758,1.2755,1.275,1.2747,1.2749,1.2806,1.2759,1.276,1.276,1.276,1.276,1.2668,1.2663,1.2673,1.2673,1.2679,1.2683,1.2679,1.2689,1.2688,1.2691,1.2701,1.2697,1.2703,1.2707,1.271,1.2707,1.2715,1.271,1.2709,1.2707,1.2705,1.2748,1.2707,1.2707,1.2707,1.2707,1.2707,0,1.2619,1.2628,1.2628,1.2635,1.2635,1.265,1.2655,1.2654,1.2652,1.2657,1.2658,1.2656,1.2655,1.2665,1.2665,1.2661,1.2667,1.266,1.2661,1.2662,1.2697,1.27,1.2656,1.2656,1.2656,1.2656,1.2656,1.2656,1.2594,1.2587,1.2596,1.2592,1.26,1.2598,1.26,1.2604,1.2609,1.2607,1.2607,1.2614,1.2622,1.2623,1.2623,1.2626,1.2625,1.2616,1.2621,1.2654,1.2659,1.2664,1.2667,1.2616,1.2616,1.2586,1.2586,1.2586]}]]